This is the latest recevied weather packets stored in our database for station/object ALANSN-2. If no packets are shown the sender has not sent any weather packets the latest 10 day(s).
| Time | Temp. | Humidity | Pressure | Rain* | Wind** | Luminosity | Snow |
|---|---|---|---|---|---|---|---|
| 1787930218 | 20° C | 66% | 1033 hPa | 0 mm | - | 592 W/m² | - |
| 1787929920 | 20° C | 66% | 1033 hPa | 0 mm | - | 592 W/m² | - |
| 1787929625 | 21.11° C | 62% | 1033 hPa | 0 mm | - | 562 W/m² | - |
| 1787929021 | 21.11° C | 60% | 1033 hPa | 0 mm | - | 547 W/m² | - |
| 1787928720 | 20° C | 58% | 1033.2 hPa | 0 mm | - | 556 W/m² | - |
| 1787928420 | 18.33° C | 80% | 1033 hPa | 0 mm | - | 501 W/m² | - |
| 1787927820 | 17.78° C | 81% | 1033.4 hPa | 0 mm | - | 484 W/m² | - |
| 1787927520 | 17.22° C | 85% | 1033 hPa | 0 mm | - | 442 W/m² | - |
| 1787927220 | 17.22° C | 85% | 1033 hPa | 0 mm | - | 442 W/m² | - |
| 1787926920 | 16.67° C | 87% | 1033.1 hPa | 0 mm | - | 425 W/m² | - |
| 1787926620 | 17.22° C | 87% | 1033.1 hPa | 0 mm | - | 211 W/m² | - |
| 1787926320 | 17.22° C | 87% | 1033.1 hPa | 0 mm | - | 211 W/m² | - |
| 1787926020 | 17.78° C | 86% | 1033.3 hPa | 0 mm | - | 222 W/m² | - |
| 1787925720 | 15.56° C | 92% | 1033.3 hPa | 0 mm | - | 228 W/m² | - |
| 1787925420 | 15.56° C | 92% | 1033.3 hPa | 0 mm | - | 228 W/m² | - |
| 1787925120 | 15.56° C | 92% | 1033.2 hPa | 0 mm | - | 227 W/m² | - |
| 1787924818 | 15.56° C | 92% | 1033.3 hPa | 0 mm | - | 206 W/m² | - |
| 1787924518 | 15.56° C | 93% | 1033.3 hPa | 0 mm | - | 74 W/m² | - |
| 1787924217 | 15.56° C | 93% | 1033.1 hPa | 0 mm | - | 62 W/m² | - |
| 1787923920 | 15° C | 95% | 1033.2 hPa | 0 mm | - | 51 W/m² | - |
| 1787923620 | 13.89° C | 97% | 1033.1 hPa | 0 mm | - | 65 W/m² | - |
| 1787923323 | 13.89° C | 98% | 1033.2 hPa | 0 mm | - | 37 W/m² | - |
| 1787923020 | 13.89° C | 99% | 1033.3 hPa | 0 mm | - | 35 W/m² | - |
| 1787922720 | 13.33° C | 99% | 1033.3 hPa | 0 mm | - | 34 W/m² | - |
| 1787922420 | 13.33° C | 99% | 1033.1 hPa | 0 mm | - | 35 W/m² | - |
* Rain latest hour (hover to see other rain measurements)
** Current wind speed in m/s (hover to see current wind gust speed)